Regional Weather Roundup
Issued by NWS Sioux Falls, SD

Home | Current Version | Previous Version | Text Only | Print | Product List | Glossary On
Versions: 1 2 3 4 5 6 7 8 9 10 11 12 13 14 15 16 17 18 19 20 21 22 23 24 25 26 27 28 29 30 31 32 33 34 35 36 37 38 39 40 41 42 43 44 45 46 47 48 49 50
000
ASUS43 KFSD 250810
RWRFSD

WEATHER ROUNDUP FOR SE SOUTH DAKOTA/SW MINNESOTA/NW IOWA
NATIONAL WEATHER SERVICE SIOUX FALLS SD
300 AM CDT FRI APR 25 2014

NOTE: "FAIR" INDICATES FEW OR NO CLOUDS BELOW 12,000 FEET WITH NO
SIGNIFICANT WEATHER AND OR OBSTRUCTIONS TO VISIBILITY.


SDZ038>040-050-052>070-250900-
SOUTHEAST SOUTH DAKOTA

CITY           SKY/WX    TMP DP  RH WIND       PRES   REMARKS
CHAMBERLAIN      N/A     45  31  58 SW6       29.80R
HURON          MOCLDY    40  28  62 NW6       29.77R
MADISON        PTSUNNY   41  28  60 W5        29.76S
MITCHELL       PTCLDY    45  28  51 W7        29.78R
SIOUX FALLS    PTCLDY    39  33  79 SW3       29.76F
WINNER         FAIR      52  27  38 SW8       29.81S
YANKTON        PTCLDY    43  28  56 CALM      29.79F
$$

MNZ071-072-080-081-089-090-097-098-250900-
SOUTHWEST MINNESOTA

CITY           SKY/WX    TMP DP  RH WIND       PRES   REMARKS
FAIRMONT       CLEAR     41  36  81 SW8       29.76F
JACKSON        CLEAR     41  37  87 SW9       29.76S
LUVERNE        PTCLDY    41  37  87 CALM      29.76F
MARSHALL       CLEAR     43  36  75 SW15      29.72S
MONTEVIDEO     CLEAR     39  39 100 W5        29.73S
PIPESTONE      PTCLDY    39  36  87 SW3       29.75S
REDWOOD FALLS  CLEAR     43  39  86 SW13      29.71F
TRACY          CLEAR     43  39  87 SW10      29.73F
WINDOM         CLEAR     39  37  93 SW5       29.75S
WORTHINGTON    CLEAR     43  36  75 SW9       29.77S
$$

IAZ001>003-012>014-020>022-031-032-NEZ013-014-SDZ071-250900-
NORTHWEST IOWA

CITY           SKY/WX    TMP DP  RH WIND       PRES   REMARKS
CHEROKEE       CLEAR     37  36  96 CALM      29.78S FOG
DENISON        CLEAR     43  41  93 CALM      29.79S
ESTHERVILLE    CLEAR     39  38  96 SW9       29.75F
LE MARS          N/A     37  37 100 CALM      29.79S
ORANGE CITY    CLEAR     45  37  76 W3        29.77F
SHELDON        CLEAR     39  37  93 SW3       29.76F
SIOUX CITY     CLEAR     42  37  82 CALM      29.80R
SPENCER        CLEAR     37  35  92 SW5       29.77S
STORM LAKE     CLEAR     43  39  87 SW7       29.79S
$$

ABBREVIATIONS USED IN REMARKS
   TC - TEMPERATURE IN CELSIUS
  WCI - WIND CHILL INDEX
   HX - HEAT INDEX
  VSB - VISIBILITY




USA.gov is the U.S. government's official web portal to all federal, state and local government web resources and services.